Weather History for Baltimore Martin, MD

Change the Weather History Date:

Saturday, November 23, 2013

  Actual Average Record
Temperature  
Mean Temperature 44 °F -  
Max Temperature 55 °F 51 °F 66 °F (2010)
Min Temperature 32 °F 35 °F 24 °F (2000)
Degree Days  
Heating Degree Days 22    
Moisture  
Dew Point 31 °F    
Average Humidity 59    
Maximum Humidity 88    
Minimum Humidity 36    
Precipitation  
Precipitation 0.00 in - - ()
Sea Level Pressure  
Sea Level Pressure 30.10 in    
Wind  
Wind Speed 15 mph (WNW)    
Max Wind Speed 26 mph    
Max Gust Speed 34 mph    
Visibility 10 miles    
Events      
Averages and records for this station are not official NWS values.
T = Trace of Precipitation, MM = Missing Value Source: NWS Daily Summary

Daily Weather History Graph

Daily Weather History Graph

Search for Another Location

Airport:

Trip Planner

Search our weather history database for the weather conditions in past years. The results will help you decide how hot, cold, wet, or windy it might be!

Date:

Astronomy

Nov. 23, 2013 Rise Set
Actual Time 6:58 AM EST 4:45 PM EST
Civil Twilight 6:29 AM EST 5:14 PM EST
Nautical Twilight 5:56 AM EST 5:47 PM EST
Astronomical Twilight 5:24 AM EST 6:19 PM EST
Moon 10:11 PM EST (11/23) 11:14 AM EST (11/23)
Length of Visible Light 10h 45m
Length of Day
9h 47m
Waning Gibbous, 70% of the Moon is Illuminated
Nov 23
Waning Gibbous
Nov 25
Last Quarter
Dec 2
New
Dec 9
First Quarter
Dec 17
Full

Hourly Weather History & Observations

Time (EST) Temp. Windchill Dew Point Humidity Pressure Visibility Wind Dir Wind Speed Gust Speed Precip Events Conditions
12:15 AM 55.4 °F - 51.8 °F 88% 30.03 in 10.0 mi West 11.5 mph 19.6 mph N/A   Clear
12:36 AM 55.4 °F - 50.0 °F 82% 30.03 in 10.0 mi WNW 11.5 mph 18.4 mph N/A   Clear
12:54 AM 55.4 °F - 48.2 °F 77% 30.04 in 10.0 mi West 15.0 mph 18.4 mph N/A   Clear
1:15 AM 55.4 °F - 46.4 °F 72% 30.04 in 10.0 mi WNW 17.3 mph 21.9 mph N/A   Scattered Clouds
1:36 AM 53.6 °F - 46.4 °F 77% 30.05 in 10.0 mi West 16.1 mph 25.3 mph N/A   Mostly Cloudy
1:54 AM 53.6 °F - 44.6 °F 72% 30.05 in 10.0 mi WNW 13.8 mph - N/A   Scattered Clouds
2:15 AM 53.6 °F - 44.6 °F 72% 30.06 in 10.0 mi WNW 17.3 mph 24.2 mph N/A   Scattered Clouds
2:36 AM 51.8 °F - 41.0 °F 67% 30.07 in 10.0 mi West 16.1 mph 26.5 mph N/A   Scattered Clouds
2:54 AM 51.8 °F - 41.0 °F 67% 30.07 in 10.0 mi WNW 16.1 mph 19.6 mph N/A   Clear
3:15 AM 50.0 °F - 39.2 °F 66% 30.07 in 10.0 mi West 18.4 mph 25.3 mph N/A   Clear
3:36 AM 50.0 °F - 37.4 °F 62% 30.07 in 10.0 mi West 16.1 mph 24.2 mph N/A   Clear
3:54 AM 48.2 °F - 37.4 °F 66% 30.08 in 10.0 mi West 18.4 mph 26.5 mph N/A   Clear
4:15 AM 46.4 °F 39.8 °F 35.6 °F 66% 30.08 in 10.0 mi West 16.1 mph 23.0 mph N/A   Clear
4:36 AM 46.4 °F 40.4 °F 35.6 °F 66% 30.09 in 10.0 mi WNW 13.8 mph - N/A   Clear
4:57 AM 46.4 °F 39.8 °F 33.8 °F 62% 30.10 in 10.0 mi WNW 16.1 mph 25.3 mph N/A   Clear
5:15 AM 44.6 °F 37.4 °F 33.8 °F 66% 30.11 in 10.0 mi WNW 16.1 mph 28.8 mph N/A   Clear
5:30 AM 44.6 °F 38.4 °F 32.0 °F 61% 30.11 in 10.0 mi WNW 12.7 mph 18.4 mph N/A   Clear
5:45 AM 44.6 °F 38.4 °F 33.8 °F 66% - 10.0 mi NW 12.7 mph 25.3 mph N/A   Partly Cloudy
6:45 AM 42.8 °F 37.0 °F 32.0 °F 66% 30.14 in 10.0 mi WNW 10.4 mph 19.6 mph N/A   Partly Cloudy
7:45 AM - - - N/A% 30.14 in 10.0 mi NW 12.7 mph 21.9 mph N/A   Clear
8:45 AM - - - N/A% 30.13 in 10.0 mi NW 18.4 mph 24.2 mph N/A   Clear
9:45 AM - - - N/A% 30.14 in 10.0 mi NW 16.1 mph 24.2 mph N/A   Scattered Clouds
10:45 AM - - - N/A% 30.14 in 10.0 mi NW 12.7 mph - N/A   Mostly Cloudy
11:45 AM - - - N/A% 30.10 in 10.0 mi WNW 13.8 mph - N/A   Mostly Cloudy
12:45 PM 46.4 °F 39.8 °F 24.8 °F 43% 30.08 in 10.0 mi West 16.1 mph - N/A   Mostly Cloudy
1:45 PM 46.4 °F 41.1 °F 24.8 °F 43% 30.05 in 10.0 mi West 11.5 mph 21.9 mph N/A   Mostly Cloudy
2:45 PM 46.4 °F 39.5 °F 24.8 °F 43% 30.05 in 10.0 mi WNW 17.3 mph 23.0 mph N/A   Mostly Cloudy
3:55 PM 44.6 °F 36.9 °F 23.0 °F 43% 30.05 in 10.0 mi WNW 18.4 mph 20.7 mph N/A   Mostly Cloudy
4:50 PM 44.6 °F 39.2 °F 24.8 °F 46% 30.06 in 10.0 mi West 10.4 mph - N/A   Mostly Cloudy
5:45 PM 44.6 °F 37.8 °F 21.2 °F 39% 30.07 in 10.0 mi West 15.0 mph 20.7 mph N/A   Mostly Cloudy
6:45 PM 42.8 °F 34.3 °F 17.6 °F 36% 30.07 in 10.0 mi West 19.6 mph 27.6 mph N/A   Mostly Cloudy
7:45 PM 42.8 °F 33.3 °F 19.4 °F 39% 30.09 in 10.0 mi West 24.2 mph 33.4 mph N/A   Mostly Cloudy
8:45 PM 39.2 °F 28.0 °F 19.4 °F 45% 30.13 in 10.0 mi West 26.5 mph 34.5 mph N/A   Mostly Cloudy
9:45 PM 33.8 °F 24.3 °F 21.2 °F 60% 30.16 in 10.0 mi WNW 13.8 mph 23.0 mph N/A   Mostly Cloudy
10:18 PM 33.8 °F 23.5 °F 21.2 °F 60% 30.16 in 10.0 mi WNW 16.1 mph 26.5 mph N/A   Clear
10:39 PM 33.8 °F 24.3 °F 19.4 °F 56% 30.17 in 10.0 mi WNW 13.8 mph - N/A   Clear
10:54 PM 33.8 °F 23.5 °F 17.6 °F 52% 30.17 in 10.0 mi West 16.1 mph 27.6 mph N/A   Clear
11:18 PM 32.0 °F 21.6 °F 12.2 °F 44% 30.18 in 10.0 mi West 15.0 mph 21.9 mph N/A   Clear
11:39 PM 32.0 °F 18.4 °F 10.4 °F 41% 30.18 in 10.0 mi WNW 26.5 mph 32.2 mph N/A   Clear
11:57 PM 32.0 °F 18.6 °F 10.4 °F 41% 30.19 in 10.0 mi West 25.3 mph 32.2 mph N/A   Clear